Portada
METAR-TAF:

METAR-TAF

Aeroports :

Chapecó, Santa Catarina, Brasil

latitud: 27-08-02S, longitud: 052-39-43W, altitud: 654 m

Observació

L'informe es va fer fa 1 hora i 14 minuts, a les 15:00 UTC
Vent 6 kt del Est/Nord-Est
Temperatura 29°C
Humitat 48%
Pressió 1017 hPa
Visibilitat 10 km o més
Núvols disperses a una alçada de 2000 ft

METAR: SBCH 121500Z 07006KT 9999 SCT020 29/17 Q1017

Hora: 14:14 (16:14 UTC)


TAF: manca

Observacions i pronòstics meteorològics de més de 4000 aeroports (METAR i TAF).

Les estacions disponibles són els punts grocs i vermells al mapa.

Posi el ratolí al punt desitjat per veure el nom de l'estació.

Feu clic per veure les observacions i els pronòstics meteorològics.

Per canviar el mapa: feu clic els botons verds amb una creu de color negre per apropar; al botó verd amb un guió per allunyar la imatge; o en les fletxes verdes per a mapes adjacents.


METAR-TAF: